Time,TemperatureF,DewpointF,PressureIn,WindDirection,WindDirectionDegrees,WindSpeedMPH,WindSpeedGustMPH,Humidity,HourlyPrecipIn,Conditions,Clouds,dailyrainin,SoftwareType,DateUTC
2013-03-14 00:07:00,36.5,21.0,30.08,NNW,347,12.0,21.0,53,0.00,,,0.00,weatherlink.com 1.10,2013-03-14 04:07:00,
2013-03-14 00:22:00,36.1,21.0,30.08,NW,305,13.0,27.0,54,0.00,,,0.00,weatherlink.com 1.10,2013-03-14 04:22:00,
2013-03-14 00:37:00,35.8,20.0,30.09,NW,316,13.0,23.0,54,0.00,,,0.00,weatherlink.com 1.10,2013-03-14 04:37:00,
2013-03-14 00:52:00,35.7,19.0,30.09,NW,318,15.0,27.0,50,0.00,,,0.00,weatherlink.com 1.10,2013-03-14 04:52:00,
2013-03-14 01:07:00,35.6,19.0,30.09,NW,308,15.0,24.0,51,0.00,,,0.00,weatherlink.com 1.10,2013-03-14 05:07:00,
2013-03-14 01:22:00,35.3,19.0,30.08,NW,304,11.0,21.0,51,0.00,,,0.00,weatherlink.com 1.10,2013-03-14 05:22:00,
2013-03-14 01:37:00,35.1,18.0,30.09,NW,311,10.0,18.0,51,0.00,,,0.00,weatherlink.com 1.10,2013-03-14 05:37:00,
2013-03-14 01:52:00,35.1,19.0,30.09,NW,314,9.0,18.0,52,0.00,,,0.00,weatherlink.com 1.10,2013-03-14 05:52:00,
2013-03-14 02:07:00,35.0,19.0,30.08,NNW,339,7.0,15.0,52,0.00,,,0.00,weatherlink.com 1.10,2013-03-14 06:07:00,
2013-03-14 02:22:00,35.1,19.0,30.09,NW,308,8.0,16.0,53,0.00,,,0.00,weatherlink.com 1.10,2013-03-14 06:22:00,
2013-03-14 02:37:00,35.0,19.0,30.08,NNW,346,18.0,19.0,52,0.00,,,0.00,weatherlink.com 1.10,2013-03-14 06:37:00,
2013-03-14 02:52:00,35.0,19.0,30.08,WNW,303,9.0,21.0,52,0.00,,,0.00,weatherlink.com 1.10,2013-03-14 06:52:00,
2013-03-14 03:07:00,34.8,19.0,30.08,NNE,15,7.0,17.0,52,0.00,,,0.00,weatherlink.com 1.10,2013-03-14 07:07:00,
2013-03-14 03:22:00,34.4,19.0,30.08,WNW,302,5.0,9.0,53,0.00,,,0.00,weatherlink.com 1.10,2013-03-14 07:22:00,
2013-03-14 03:37:00,34.2,19.0,30.08,NW,308,6.0,11.0,55,0.00,,,0.00,weatherlink.com 1.10,2013-03-14 07:37:00,
2013-03-14 03:52:00,33.8,19.0,30.08,NW,307,3.0,8.0,56,0.00,,,0.00,weatherlink.com 1.10,2013-03-14 07:52:00,
2013-03-14 04:07:00,33.9,20.0,30.08,NW,312,6.0,12.0,57,0.00,,,0.00,weatherlink.com 1.10,2013-03-14 08:07:00,
2013-03-14 04:22:00,34.1,20.0,30.08,NW,305,8.0,13.0,57,0.00,,,0.00,weatherlink.com 1.10,2013-03-14 08:22:00,
2013-03-14 04:37:00,34.2,20.0,30.08,NNW,343,12.0,17.0,56,0.00,,,0.00,weatherlink.com 1.10,2013-03-14 08:37:00,
2013-03-14 04:52:00,34.0,20.0,30.08,NW,312,8.0,16.0,58,0.00,,,0.00,weatherlink.com 1.10,2013-03-14 08:52:00,
2013-03-14 05:07:00,33.6,20.0,30.09,NW,319,9.0,11.0,58,0.00,,,0.00,weatherlink.com 1.10,2013-03-14 09:07:00,
2013-03-14 05:22:00,33.5,21.0,30.09,NNW,330,9.0,16.0,60,0.00,,,0.00,weatherlink.com 1.10,2013-03-14 09:22:00,
2013-03-14 05:37:00,33.2,20.0,30.09,WNW,300,4.0,13.0,59,0.00,,,0.00,weatherlink.com 1.10,2013-03-14 09:37:00,
2013-03-14 05:52:00,33.0,19.0,30.09,NW,311,5.0,11.0,57,0.00,,,0.00,weatherlink.com 1.10,2013-03-14 09:52:00,
2013-03-14 06:07:00,33.0,19.0,30.09,West,277,1.0,10.0,56,0.00,,,0.00,weatherlink.com 1.10,2013-03-14 10:07:00,
2013-03-14 06:22:00,32.8,18.0,30.10,NNW,328,4.0,9.0,54,0.00,,,0.00,weatherlink.com 1.10,2013-03-14 10:22:00,
2013-03-14 06:37:00,32.9,17.0,30.10,NW,314,6.0,13.0,52,0.00,,,0.00,weatherlink.com 1.10,2013-03-14 10:37:00,
2013-03-14 06:52:00,32.9,18.0,30.11,NW,319,4.0,13.0,54,0.00,,,0.00,weatherlink.com 1.10,2013-03-14 10:52:00,
2013-03-14 07:07:00,33.1,17.0,30.11,WNW,295,5.0,12.0,53,0.00,,,0.00,weatherlink.com 1.10,2013-03-14 11:07:00,
2013-03-14 07:22:00,33.1,17.0,30.11,WNW,299,11.0,11.0,52,0.00,,,0.00,weatherlink.com 1.10,2013-03-14 11:22:00,
2013-03-14 07:37:00,33.3,17.0,30.11,NW,308,9.0,13.0,51,0.00,,,0.00,weatherlink.com 1.10,2013-03-14 11:37:00,
2013-03-14 07:52:00,33.8,17.0,30.12,WNW,301,10.0,15.0,50,0.00,,,0.00,weatherlink.com 1.10,2013-03-14 11:52:00,
2013-03-14 08:07:00,34.0,17.0,30.12,NNW,333,10.0,13.0,51,0.00,,,0.00,weatherlink.com 1.10,2013-03-14 12:07:00,
2013-03-14 08:22:00,34.1,18.0,30.13,NW,319,8.0,16.0,52,0.00,,,0.00,weatherlink.com 1.10,2013-03-14 12:22:00,
2013-03-14 08:38:00,34.3,17.0,30.13,NW,314,6.0,16.0,50,0.00,,,0.00,weatherlink.com 1.10,2013-03-14 12:38:00,
2013-03-14 08:53:00,34.3,18.0,30.13,NW,307,14.0,16.0,51,0.00,,,0.00,weatherlink.com 1.10,2013-03-14 12:53:00,
2013-03-14 09:08:00,34.5,17.0,30.14,NW,311,13.0,21.0,50,0.00,,,0.00,weatherlink.com 1.10,2013-03-14 13:08:00,
2013-03-14 09:23:00,34.7,17.0,30.14,NW,323,18.0,26.0,49,0.00,,,0.00,weatherlink.com 1.10,2013-03-14 13:23:00,
2013-03-14 09:38:00,35.2,17.0,30.13,NW,307,22.0,22.0,47,0.00,,,0.00,weatherlink.com 1.10,2013-03-14 13:38:00,
2013-03-14 09:53:00,35.3,17.0,30.13,WNW,294,18.0,33.0,47,0.00,,,0.00,weatherlink.com 1.10,2013-03-14 13:53:00,
2013-03-14 10:08:00,35.8,17.0,30.14,NW,304,14.0,31.0,47,0.00,,,0.00,weatherlink.com 1.10,2013-03-14 14:08:00,
2013-03-14 10:24:00,35.8,17.0,30.13,NNE,13,21.0,30.0,46,0.00,,,0.00,weatherlink.com 1.10,2013-03-14 14:24:00,
2013-03-14 10:38:00,36.1,17.0,30.13,NNE,13,23.0,34.0,46,0.00,,,0.00,weatherlink.com 1.10,2013-03-14 14:38:00,
2013-03-14 10:53:00,36.5,17.0,30.13,NNW,329,17.0,30.0,46,0.00,,,0.00,weatherlink.com 1.10,2013-03-14 14:53:00,
2013-03-14 11:08:00,36.8,17.0,30.12,NW,315,16.0,26.0,45,0.00,,,0.00,weatherlink.com 1.10,2013-03-14 15:08:00,
2013-03-14 11:23:00,37.4,17.0,30.12,NW,307,19.0,28.0,44,0.00,,,0.00,weatherlink.com 1.10,2013-03-14 15:23:00,
2013-03-14 11:38:00,37.2,18.0,30.12,NW,319,21.0,29.0,45,0.00,,,0.00,weatherlink.com 1.10,2013-03-14 15:38:00,
2013-03-14 11:53:00,37.8,17.0,30.11,WNW,294,10.0,29.0,43,0.00,,,0.00,weatherlink.com 1.10,2013-03-14 15:53:00,
2013-03-14 12:08:00,38.0,18.0,30.11,WNW,301,14.0,24.0,45,0.00,,,0.00,weatherlink.com 1.10,2013-03-14 16:08:00,
2013-03-14 12:23:00,38.3,19.0,30.10,WNW,292,11.0,21.0,45,0.00,,,0.00,weatherlink.com 1.10,2013-03-14 16:23:00,
2013-03-14 12:38:00,38.7,17.0,30.10,NNW,347,14.0,28.0,41,0.00,,,0.00,weatherlink.com 1.10,2013-03-14 16:38:00,
2013-03-14 12:53:00,38.7,17.0,30.09,NNE,17,19.0,28.0,42,0.00,,,0.00,weatherlink.com 1.10,2013-03-14 16:53:00,
2013-03-14 13:08:00,39.2,17.0,30.08,NW,309,16.0,23.0,41,0.00,,,0.00,weatherlink.com 1.10,2013-03-14 17:08:00,
2013-03-14 13:23:00,39.5,17.0,30.07,NNW,335,17.0,25.0,41,0.00,,,0.00,weatherlink.com 1.10,2013-03-14 17:23:00,
2013-03-14 13:38:00,40.2,16.0,30.07,NW,311,14.0,25.0,38,0.00,,,0.00,weatherlink.com 1.10,2013-03-14 17:38:00,
2013-03-14 13:53:00,40.5,17.0,30.07,NNW,331,12.0,29.0,38,0.00,,,0.00,weatherlink.com 1.10,2013-03-14 17:53:00,
2013-03-14 14:08:00,40.8,17.0,30.06,NW,307,14.0,26.0,38,0.00,,,0.00,weatherlink.com 1.10,2013-03-14 18:08:00,
2013-03-14 14:23:00,41.4,17.0,30.05,NNW,327,14.0,28.0,37,0.00,,,0.00,weatherlink.com 1.10,2013-03-14 18:23:00,
2013-03-14 14:38:00,41.5,17.0,30.05,NW,308,16.0,31.0,37,0.00,,,0.00,weatherlink.com 1.10,2013-03-14 18:38:00,
2013-03-14 14:54:00,42.8,17.0,30.04,NW,321,23.0,23.0,36,0.00,,,0.00,weatherlink.com 1.10,2013-03-14 18:54:00,
2013-03-14 15:09:00,42.6,17.0,30.04,North,357,20.0,31.0,35,0.00,,,0.00,weatherlink.com 1.10,2013-03-14 19:09:00,
2013-03-14 15:24:00,42.9,15.0,30.03,NW,305,15.0,26.0,33,0.00,,,0.00,weatherlink.com 1.10,2013-03-14 19:24:00,
2013-03-14 15:39:00,43.2,16.0,30.03,NW,309,16.0,28.0,33,0.00,,,0.00,weatherlink.com 1.10,2013-03-14 19:39:00,
2013-03-14 15:54:00,43.5,16.0,30.03,WNW,298,14.0,31.0,33,0.00,,,0.00,weatherlink.com 1.10,2013-03-14 19:54:00,
2013-03-14 16:24:00,44.1,16.0,30.03,North,4,17.0,25.0,32,0.00,,,0.00,weatherlink.com 1.10,2013-03-14 20:24:00,
2013-03-14 16:39:00,44.3,15.0,30.03,NW,312,11.0,28.0,30,0.00,,,0.00,weatherlink.com 1.10,2013-03-14 20:39:00,
2013-03-14 16:54:00,44.7,16.0,30.03,WNW,298,23.0,28.0,31,0.00,,,0.00,weatherlink.com 1.10,2013-03-14 20:54:00,
2013-03-14 17:09:00,44.4,15.0,30.03,NW,312,25.0,29.0,30,0.00,,,0.00,weatherlink.com 1.10,2013-03-14 21:09:00,
2013-03-14 17:24:00,44.3,15.0,30.03,NW,313,21.0,30.0,30,0.00,,,0.00,weatherlink.com 1.10,2013-03-14 21:24:00,
2013-03-14 17:39:00,44.2,16.0,30.03,NW,321,17.0,33.0,32,0.00,,,0.00,weatherlink.com 1.10,2013-03-14 21:39:00,
2013-03-14 17:54:00,44.2,15.0,30.03,WNW,302,19.0,27.0,31,0.00,,,0.00,weatherlink.com 1.10,2013-03-14 21:54:00,
2013-03-14 18:09:00,44.0,15.0,30.03,NW,311,20.0,28.0,31,0.00,,,0.00,weatherlink.com 1.10,2013-03-14 22:09:00,
2013-03-14 18:24:00,43.9,16.0,30.04,NNW,328,14.0,24.0,33,0.00,,,0.00,weatherlink.com 1.10,2013-03-14 22:24:00,
2013-03-14 18:39:00,43.8,16.0,30.04,North,354,15.0,23.0,33,0.00,,,0.00,weatherlink.com 1.10,2013-03-14 22:39:00,
2013-03-14 18:54:00,43.1,16.0,30.05,NW,325,10.0,25.0,33,0.00,,,0.00,weatherlink.com 1.10,2013-03-14 22:54:00,
2013-03-14 19:09:00,42.6,16.0,30.06,NW,314,14.0,26.0,34,0.00,,,0.00,weatherlink.com 1.10,2013-03-14 23:09:00,
2013-03-14 19:24:00,42.3,16.0,30.07,NW,308,7.0,21.0,35,0.00,,,0.00,weatherlink.com 1.10,2013-03-14 23:24:00,
2013-03-14 19:39:00,42.0,17.0,30.08,NW,319,8.0,15.0,36,0.00,,,0.00,weatherlink.com 1.10,2013-03-14 23:39:00,
2013-03-14 19:54:00,41.6,17.0,30.08,NW,309,4.0,13.0,37,0.00,,,0.00,weatherlink.com 1.10,2013-03-14 23:54:00,
2013-03-14 20:09:00,41.2,17.0,30.08,NNW,338,5.0,8.0,37,0.00,,,0.00,weatherlink.com 1.10,2013-03-15 00:09:00,
2013-03-14 20:24:00,40.7,18.0,30.09,NW,308,2.0,5.0,40,0.00,,,0.00,weatherlink.com 1.10,2013-03-15 00:24:00,
2013-03-14 20:39:00,40.2,18.0,30.09,NW,309,1.0,6.0,41,0.00,,,0.00,weatherlink.com 1.10,2013-03-15 00:39:00,
2013-03-14 20:54:00,39.4,17.0,30.09,WNW,295,1.0,2.0,41,0.00,,,0.00,weatherlink.com 1.10,2013-03-15 00:54:00,
2013-03-14 21:09:00,39.3,17.0,30.09,North,352,6.0,16.0,41,0.00,,,0.00,weatherlink.com 1.10,2013-03-15 01:09:00,
2013-03-14 21:24:00,39.9,17.0,30.09,NW,304,9.0,12.0,40,0.00,,,0.00,weatherlink.com 1.10,2013-03-15 01:24:00,
2013-03-14 21:39:00,39.9,17.0,30.09,NW,308,3.0,8.0,40,0.00,,,0.00,weatherlink.com 1.10,2013-03-15 01:39:00,
2013-03-14 21:54:00,39.8,17.0,30.09,WNW,300,5.0,11.0,40,0.00,,,0.00,weatherlink.com 1.10,2013-03-15 01:54:00,
2013-03-14 22:09:00,39.4,17.0,30.10,NW,304,4.0,7.0,41,0.00,,,0.00,weatherlink.com 1.10,2013-03-15 02:09:00,
2013-03-14 22:24:00,39.2,18.0,30.10,WNW,295,3.0,6.0,42,0.00,,,0.00,weatherlink.com 1.10,2013-03-15 02:24:00,
2013-03-14 22:39:00,38.8,18.0,30.10,WNW,294,1.0,5.0,44,0.00,,,0.00,weatherlink.com 1.10,2013-03-15 02:39:00,
2013-03-14 22:54:00,38.3,17.0,30.10,NNW,338,3.0,5.0,43,0.00,,,0.00,weatherlink.com 1.10,2013-03-15 02:54:00,
2013-03-14 23:09:00,38.1,18.0,30.10,NW,305,3.0,4.0,45,0.00,,,0.00,weatherlink.com 1.10,2013-03-15 03:09:00,
2013-03-14 23:24:00,37.6,17.0,30.10,WNW,284,1.0,4.0,44,0.00,,,0.00,weatherlink.com 1.10,2013-03-15 03:24:00,
2013-03-14 23:40:00,37.1,17.0,30.11,WSW,248,1.0,1.0,44,0.00,,,0.00,weatherlink.com 1.10,2013-03-15 03:40:00,
2013-03-14 23:54:00,36.5,18.0,30.11,West,269,1.0,3.0,47,0.00,,,0.00,weatherlink.com 1.10,2013-03-15 03:54:00,